Other Public Products
Issued by NWS Grand Forks, ND

Home | Current Version | Previous Version | Text Only | Print | Product List | Glossary On
Versions: 1 2 3 4 5 6 7 8 9 10 11 12 13 14 15 16 17 18 19 20 21 22 23 24 25 26 27 28 29 30 31 32 33 34 35 36 37 38 39 40 41 42 43 44 45 46 47 48 49 50
105
FPUS83 KFGF 260031
OPUFGF
PRAIRIE TO PINES WEATHER ROUNDUP
NATIONAL WEATHER SERVICE EASTERN NORTH DAKOTA/GRAND FORKS ND
700 PM CDT MON JUL 25 2016

 **SATELLITE DATA USED TO AUGMENT SKY COVER AT AUTOMATED STATIONS**
 *****  WEATHER ACROSS EASTERN NORTH DAKOTA  *****

CITY           SKY/WX    TMP DP  RH WIND       PRES   REMARKS
GRAND FORKS    MOSUNNY   89  67  47 S6        29.89F HX  92
6HR MIN TEMP:  83; 6HR MAX TEMP:  90;

GRAND FORKS AF MOSUNNY   87  68  51 S7        29.90F HX  91
GRAND CITY NWS   N/A     86 N/A N/A S5          N/A
BUXTON           N/A     89  67  48 S6          N/A  HX  92
DEVILS LAKE    SUNNY     84  70  62 NE10      29.92F
6HR MIN TEMP:  81; 6HR MAX TEMP:  86;

FARGO          SUNNY     87  61  41 S10       29.92F
6HR MIN TEMP:  85; 6HR MAX TEMP:  91;

WAHPETON ARPT  CLEAR     84  61  45 S10       29.95F
$$

 *****  WEATHER ACROSS CENTRAL AND WESTERN NORTH DAKOTA  *****

CITY           SKY/WX    TMP DP  RH WIND       PRES   REMARKS
JAMESTOWN      SUNNY     88  69  53 S7        29.91F HX  92
6HR MIN TEMP:  87; 6HR MAX TEMP:  90;

BISMARCK       SUNNY     93  64  38 CALM      29.91S HX  94
6HR MIN TEMP:  86; 6HR MAX TEMP:  95;

MINOT          SUNNY     88  66  48 N9        29.94S HX  90
6HR MIN TEMP:  86; 6HR MAX TEMP:  91;

MINOT AFB      SUNNY     85  64  49 NE8       29.94S
6HR MIN TEMP:  82; 6HR MAX TEMP:  87;

GARRISON         N/A     87  68  52 N8        29.94S HX  90
6HR MIN TEMP:  81; 6HR MAX TEMP:  89;

WILLISTON      SUNNY     90  52  27 N10       29.97R
6HR MIN TEMP:  87; 6HR MAX TEMP:  92;

DICKINSON      SUNNY     91  47  21 N7        29.94S
6HR MIN TEMP:  86; 6HR MAX TEMP:  93;

HETTINGER      MOSUNNY   98  50  19 NE14      29.95S HX  95
6HR MIN TEMP:  93; 6HR MAX TEMP: 100;

$$

 *****  OTHER OBSERVATIONS NORTHEAST NORTH DAKOTA  *****

CITY           SKY/WX    TMP DP  RH WIND       PRES   REMARKS
WALHALLA       FAIR      82  79  89 CALM      29.93F HX  93
LANGDON        FAIR      82  70  65 NE6       29.97R
CAVALIER       FAIR      82  66  57 E3        29.93S
GRAFTON        MOCLDY    82  72  69 E7        29.93S
CANDO          FAIR      81  68  65 NE9       29.97R
FORT TOTTEN      N/A     87  71  59 NE3       29.95  HX  93
ROLLA            N/A     79  64  61 E5        29.99S
RUGBY          NOT AVBL
 ***** THE ABOVE OBSERVATIONS ARE NON NWS ARE NOT QUALITY
        CONTROLLED AND MAY MIS-REPORT RAIN FOR SNOW...
$$

 *****  OTHER OBSERVATIONS SOUTHEAST NORTH DAKOTA *****

CITY           SKY/WX    TMP DP  RH WIND       PRES   REMARKS
COOPERSTOWN    NOT AVBL
VALLEY CITY    FAIR      86  68  54 S9        29.94F
OAKES            N/A    N/A N/A N/A MISG        N/A
GWINNER        FAIR      86  64  48 S12       29.94S
SHEYENNE NWR     N/A     88  61  39 SW9       29.95S
BUFFALO          N/A     85  60  43 S7          N/A
WYNDMERE         N/A     90  66  45 S5          N/A  HX  92
 ***** THE ABOVE OBSERVATIONS ARE NON NWS ARE NOT QUALITY
       CONTROLLED AND MAY MIS-REPORT RAIN FOR SNOW...
$$

  *****  WEATHER ACROSS NORTHERN MINNESOTA  *****

CITY           SKY/WX    TMP DP  RH WIND       PRES   REMARKS
FLAG ISLAND    SUNNY     81  59  47 W7        29.92S
WARROAD        SUNNY     81  68  65 W7        29.95F
ROSEAU         SUNNY     81  66  61 SW6       29.95F
HALLOCK        SUNNY     84  66  54 CALM      29.92F
THF RVR FALLS  SUNNY     83  68  60 S5        29.95F
6HR MIN TEMP:  78; 6HR MAX TEMP:  84;

HALSTAD        NOT AVBL
FOSSTON        SUNNY     84  66  54 S6        29.97F
BAUDETTE       SUNNY     81  60  48 W8        29.95F
6HR MIN TEMP:  77; 6HR MAX TEMP:  83;

WASKISH        SUNNY     81  66  61 SW8       29.97S
CROOKSTON      SUNNY     86  66  51 S6        29.92F
$$
  *****  WEATHER ACROSS CENTRAL AND WEST MINNESOTA  *****

CITY           SKY/WX    TMP DP  RH WIND       PRES   REMARKS
BEMIDJI        SUNNY     82  63  51 SW8       29.98F
PARK RAPIDS    SUNNY     83  63  50 SW8       30.00S
6HR MIN TEMP:  80; 6HR MAX TEMP:  86;

WADENA         SUNNY     81  68  65 S6        30.00S
DETROIT LAKES  SUNNY     82  66  57 S7        30.00S
MOORHEAD       SUNNY     86  66  51 S6        29.93F
FERGUS FALLS   SUNNY     84  64  51 MISG      29.97F
ELBOW LAKE     FAIR      82  68  63 S8        30.00S
MORRIS MN      SUNNY     84  66  54 S7        29.99F
STAPLES        SUNNY     82  63  51 SW6       30.00F
WHEATON        SUNNY     86  70  58 S6        29.98F HX  90
$$
  *****  WEATHER ELSEWHERE ACROSS MINNESOTA  *****

CITY           SKY/WX    TMP DP  RH WIND       PRES   REMARKS
DULUTH         SUNNY     81  61  50 NW8       29.99S
6HR MIN TEMP:  79; 6HR MAX TEMP:  83;

INTRNTL FALLS  SUNNY     80  60  50 W6        29.94S
6HR MIN TEMP:  78; 6HR MAX TEMP:  82;

ELY            SUNNY     79  57  47 W8        29.96S
CLOQUET        SUNNY     81  59  47 W8        29.99S
BRAINERD       SUNNY     83  62  49 W7        30.00F
6HR MIN TEMP:  80; 6HR MAX TEMP:  85;

HIBBING        SUNNY     79  60  52 W7        29.98S
6HR MIN TEMP:  76; 6HR MAX TEMP:  81;

ALEXANDRIA     SUNNY     83  64  52 SW10      30.03F
6HR MIN TEMP:  81; 6HR MAX TEMP:  85;

SAINT CLOUD    SUNNY     83  65  54 W9        30.02S
6HR MIN TEMP:  81; 6HR MAX TEMP:  85;

MINNEAPOLIS    MOSUNNY   85  63  47 W8        30.02S
6HR MIN TEMP:  83; 6HR MAX TEMP:  87;

$$

  *****  WEATHER ACROSS SOUTH DAKOTA  *****

CITY           SKY/WX    TMP DP  RH WIND       PRES   REMARKS
SIOUX FALLS    SUNNY     83  61  47 S9        30.04F
6HR MIN TEMP:  82; 6HR MAX TEMP:  85;

BROOKINGS      SUNNY     82  65  56 S9        30.04F
WATERTOWN      SUNNY     85  63  47 S12       30.02F
6HR MIN TEMP:  85; 6HR MAX TEMP:  88;

HURON          SUNNY     89  55  31 S15G23    29.98F
6HR MIN TEMP:  86; 6HR MAX TEMP:  90;

SISSETON         N/A     87  59  38 SW12G18   29.96S
ABERDEEN       SUNNY     89  62  40 S12       29.95S
6HR MIN TEMP:  88; 6HR MAX TEMP:  93;

MITCHELL       SUNNY     89  58  34 S10       30.01F
PIERRE         MOSUNNY   94  48  20 SW15      29.94S HX  90
6HR MIN TEMP:  92; 6HR MAX TEMP:  97;

MOBRIDGE       SUNNY     98  50  19 S14       29.89F HX  95
RAPID CITY     CLOUDY    86  49  27 W8        29.99S
6HR MIN TEMP:  83; 6HR MAX TEMP:  92;

$$

  *****  SOME WEATHER IN NEARBY STATES *****

CITY           SKY/WX    TMP DP  RH WIND       PRES   REMARKS
GLASGOW MT     SUNNY     91  54  28 NE6       29.95F
6HR MIN TEMP:  85; 6HR MAX TEMP:  93;

GREAT FALLS MT SUNNY     89  41  18 VRB6      30.03F
6HR MIN TEMP:  82; 6HR MAX TEMP:  91;

CHEYENNE WY    MOSUNNY   87  45  23 SE13      30.17F
6HR MIN TEMP:  79; 6HR MAX TEMP:  89;

SCOTTSBLUFF NE MOSUNNY   93  54  26 SE15      30.02F HX  91
6HR MIN TEMP:  85; 6HR MAX TEMP:  95;

OMAHA NE       MOSUNNY   86  65  49 E7        30.03F
6HR MIN TEMP:  84; 6HR MAX TEMP:  89;

DES MOINES IA  MOSUNNY   86  60  41 NE15      30.03R
6HR MIN TEMP:  86; 6HR MAX TEMP:  89;

DAVENPORT IA   CLOUDY    82  66  58 N7        30.02R
6HR MIN TEMP:  81; 6HR MAX TEMP:  85;

CHICAGO IL     PTSUNNY   83  64  52 E6        29.98R
6HR MIN TEMP:  83; 6HR MAX TEMP:  89;

EAU CLAIRE WI  SUNNY     82  61  48 NW6       30.00F
6HR MIN TEMP:  81; 6HR MAX TEMP:  85;

LA CROSSE WI   SUNNY     84  63  49 N9        30.00F
6HR MIN TEMP:  82; 6HR MAX TEMP:  86;

$$

  *****  SOME NATIONAL WEATHER *****

CITY           SKY/WX    TMP DP  RH WIND       PRES   REMARKS
LA GUARDIA NY  CLOUDY    78  71  79 N3        29.87F
6HR MIN TEMP:  77; 6HR MAX TEMP:  94; 6HR PCP:  0.76;              C1F1C2F2C3F3C4F4C5F5C6F6C7F7C8F8C9F9CaFaCbFbCcFcCdFdCe!



USA.gov is the U.S. government's official web portal to all federal, state and local government web resources and services.